| time (UTC) | temp C | wind direction | speed KPH | gust KPH | rain 1hr cm | rain 24hr cm | rain mn cm | humidity % | barometer mb |
| 20260505041604 | 23 | 359 | 1.6 | 4.8 | 0.00 | 0.00 | 0.00 | 49 | 1015.7 |
| 20260505040604 | 23 | 82 | 4.8 | 14.5 | 0.00 | 0.00 | 0.00 | 47 | 1015.7 |
| 20260505040104 | 23 | 359 | 0.0 | 0.0 | 0.00 | 0.00 | 0.00 | 48 | 1015.6 |
| 20260505035604 | 23 | 359 | 0.0 | 4.8 | 0.00 | 0.00 | 0.00 | 49 | 1015.6 |
| 20260505035104 | 23 | 359 | 0.0 | 1.6 | 0.00 | 0.00 | 0.00 | 51 | 1015.6 |
| 20260505034104 | 22 | 359 | 0.0 | 4.8 | 0.00 | 0.00 | 0.00 | 49 | 1015.7 |
| 20260505033105 | 22 | 3 | 3.2 | 8.0 | 0.00 | 0.00 | 0.00 | 51 | 1015.8 |
| 20260505032605 | 22 | 359 | 3.2 | 11.3 | 0.00 | 0.00 | 0.00 | 49 | 1015.9 |
| 20260505032105 | 22 | 359 | 1.6 | 9.7 | 0.00 | 0.00 | 0.00 | 53 | 1016.0 |
| 20260505031605 | 22 | 6 | 6.4 | 16.1 | 0.00 | 0.00 | 0.00 | 52 | 1016.0 |
| 20260505031105 | 22 | 0 | 4.8 | 9.7 | 0.00 | 0.00 | 0.00 | 52 | 1016.1 |
| 20260505030605 | 22 | 4 | 6.4 | 16.1 | 0.00 | 0.00 | 0.00 | 53 | 1016.0 |
| 20260505030105 | 21 | 359 | 3.2 | 12.9 | 0.00 | 0.00 | 0.00 | 52 | 1016.1 |
| 20260505025604 | 21 | 46 | 4.8 | 12.9 | 0.00 | 0.00 | 0.00 | 53 | 1016.1 |
| 20260505025104 | 21 | 359 | 1.6 | 12.9 | 0.00 | 0.00 | 0.00 | 54 | 1016.2 |
| 20260505024104 | 21 | 3 | 8.0 | 16.1 | 0.00 | 0.00 | 0.00 | 55 | 1016.2 |
| 20260505023604 | 21 | 33 | 11.3 | 22.5 | 0.00 | 0.00 | 0.00 | 54 | 1016.2 |
| 20260505022604 | 21 | 99 | 4.8 | 11.3 | 0.00 | 0.00 | 0.00 | 56 | 1016.4 |
| 20260505022105 | 20 | 359 | 9.7 | 24.1 | 0.00 | 0.00 | 0.00 | 56 | 1016.5 |
| 20260505021605 | 20 | 359 | 4.8 | 16.1 | 0.00 | 0.00 | 0.00 | 57 | 1016.5 |
| 20260505021104 | 20 | 73 | 3.2 | 22.5 | 0.00 | 0.00 | 0.00 | 57 | 1016.6 |
| 20260505020605 | 20 | 3 | 14.5 | 32.2 | 0.00 | 0.00 | 0.00 | 56 | 1016.6 |
| 20260505020104 | 20 | 132 | 4.8 | 14.5 | 0.00 | 0.00 | 0.00 | 58 | 1016.8 |
| 20260505015605 | 20 | 7 | 11.3 | 19.3 | 0.00 | 0.00 | 0.00 | 59 | 1016.8 |
| 20260505015105 | 20 | 359 | 9.7 | 19.3 | 0.00 | 0.00 | 0.00 | 58 | 1016.9 |
| 20260505014104 | 20 | 11 | 9.7 | 14.5 | 0.00 | 0.00 | 0.00 | 59 | 1016.9 |
| 20260505013604 | 19 | 6 | 11.3 | 20.9 | 0.00 | 0.00 | 0.00 | 58 | 1016.9 |
| 20260505012604 | 19 | 93 | 8.0 | 22.5 | 0.00 | 0.00 | 0.00 | 60 | 1017.0 |
| 20260505012104 | 19 | 1 | 8.0 | 22.5 | 0.00 | 0.00 | 0.00 | 60 | 1017.1 |
| 20260505005104 | 18 | 4 | 4.8 | 11.3 | 0.00 | 0.00 | 0.00 | 65 | 1017.6 |
| 20260505004604 | 18 | 359 | 6.4 | 19.3 | 0.00 | 0.00 | 0.00 | 64 | 1017.6 |
| 20260505002604 | 17 | 15 | 11.3 | 33.8 | 0.00 | 0.00 | 0.00 | 66 | 1017.6 |
| 20260505002104 | 17 | 3 | 12.9 | 22.5 | 0.00 | 0.00 | 0.00 | 66 | 1017.5 |
| 20260505001604 | 17 | 359 | 9.7 | 22.5 | 0.00 | 0.00 | 0.00 | 68 | 1017.6 |
| 20260505001104 | 17 | 359 | 6.4 | 19.3 | 0.00 | 0.00 | 0.00 | 70 | 1017.7 |
| 20260505000604 | 17 | 359 | 4.8 | 16.1 | 0.00 | 0.00 | 0.00 | 71 | 1017.7 |
| 20260505000104 | 17 | 5 | 8.0 | 19.3 | 0.00 | 0.00 | 0.00 | 71 | 1017.9 |
| 20260504235605 | 16 | 29 | 3.2 | 19.3 | 0.00 | 0.00 | 0.00 | 72 | 1017.8 |
| 20260504235104 | 16 | 2 | 9.7 | 19.3 | 0.00 | 0.00 | 0.00 | 73 | 1017.7 |
| 20260504234604 | 16 | 0 | 4.8 | 12.9 | 0.00 | 0.03 | 0.00 | 73 | 1017.8 |
| 20260504234104 | 16 | 6 | 9.7 | 14.5 | 0.00 | 0.03 | 0.00 | 73 | 1018.0 |
| 20260504233605 | 16 | 118 | 4.8 | 12.9 | 0.00 | 0.03 | 0.00 | 73 | 1018.1 |
| 20260504233105 | 16 | 359 | 3.2 | 16.1 | 0.00 | 0.03 | 0.00 | 73 | 1018.1 |
| 20260504232605 | 16 | 42 | 4.8 | 16.1 | 0.00 | 0.03 | 0.00 | 73 | 1018.0 |
| 20260504232104 | 16 | 2 | 6.4 | 11.3 | 0.00 | 0.03 | 0.00 | 73 | 1018.0 |
| 20260504231605 | 16 | 359 | 3.2 | 12.9 | 0.00 | 0.03 | 0.00 | 74 | 1018.1 |
| 20260504231104 | 15 | 359 | 4.8 | 16.1 | 0.00 | 0.03 | 0.00 | 74 | 1018.1 |
| 20260504230105 | 15 | 126 | 1.6 | 8.0 | 0.00 | 0.03 | 0.00 | 75 | 1018.1 |
| 20260504225104 | 15 | 1 | 3.2 | 11.3 | 0.00 | 0.03 | 0.00 | 76 | 1017.9 |
| 20260504224604 | 15 | 126 | 1.6 | 8.0 | 0.00 | 0.03 | 0.00 | 76 | 1018.0 |
| 20260504224104 | 15 | 73 | 1.6 | 9.7 | 0.00 | 0.03 | 0.00 | 76 | 1018.0 |
| 20260504223604 | 15 | 359 | 4.8 | 9.7 | 0.00 | 0.03 | 0.00 | 77 | 1018.0 |
| 20260504222604 | 15 | 359 | 3.2 | 9.7 | 0.00 | 0.03 | 0.00 | 78 | 1018.0 |
| 20260504222104 | 14 | 359 | 0.0 | 11.3 | 0.00 | 0.03 | 0.00 | 78 | 1018.0 |
| 20260504221604 | 14 | 359 | 4.8 | 11.3 | 0.00 | 0.03 | 0.00 | 78 | 1017.9 |
| 20260504221104 | 14 | 359 | 1.6 | 8.0 | 0.00 | 0.03 | 0.00 | 79 | 1017.8 |
| 20260504220604 | 14 | 359 | 1.6 | 9.7 | 0.00 | 0.03 | 0.00 | 79 | 1017.8 |
| 20260504215604 | 13 | 359 | 3.2 | 9.7 | 0.00 | 0.03 | 0.00 | 79 | 1017.8 |
| 20260504215104 | 13 | 359 | 0.0 | 4.8 | 0.00 | 0.03 | 0.00 | 79 | 1017.7 |
| 20260504214604 | 13 | 114 | 0.0 | 0.0 | 0.00 | 0.03 | 0.00 | 79 | 1017.6 |
| 20260504214104 | 13 | 131 | 0.0 | 4.8 | 0.00 | 0.03 | 0.00 | 79 | 1017.6 |
| 20260504213604 | 13 | 118 | 0.0 | 0.0 | 0.00 | 0.03 | 0.00 | 79 | 1017.4 |
| 20260504213104 | 13 | 83 | 1.6 | 4.8 | 0.00 | 0.03 | 0.00 | 79 | 1017.4 |
| 20260504212604 | 13 | 359 | 1.6 | 9.7 | 0.00 | 0.03 | 0.00 | 79 | 1017.3 |
| 20260504212104 | 13 | 359 | 1.6 | 4.8 | 0.00 | 0.03 | 0.00 | 79 | 1017.2 |
| 20260504211604 | 13 | 359 | 1.6 | 8.0 | 0.00 | 0.03 | 0.00 | 79 | 1017.1 |
| 20260504211104 | 13 | 359 | 3.2 | 11.3 | 0.00 | 0.03 | 0.00 | 79 | 1016.9 |
| 20260504205103 | 13 | 359 | 4.8 | 11.3 | 0.00 | 0.03 | 0.00 | 79 | 1016.6 |
| 20260504204604 | 13 | 359 | 4.8 | 9.7 | 0.00 | 0.03 | 0.00 | 80 | 1016.5 |
| 20260504203604 | 13 | 359 | 3.2 | 9.7 | 0.00 | 0.03 | 0.00 | 80 | 1016.4 |
| 20260504203104 | 13 | 359 | 1.6 | 8.0 | 0.00 | 0.03 | 0.00 | 79 | 1016.4 |
| 20260504202604 | 13 | 0 | 0.0 | 4.8 | 0.00 | 0.03 | 0.00 | 79 | 1016.4 |
| 20260504202104 | 13 | 0 | 1.6 | 4.8 | 0.00 | 0.03 | 0.00 | 79 | 1016.4 |
| 20260504201604 | 13 | 359 | 0.0 | 3.2 | 0.00 | 0.03 | 0.00 | 79 | 1016.4 |
| 20260504201104 | 13 | 359 | 0.0 | 1.6 | 0.00 | 0.03 | 0.00 | 79 | 1016.4 |
| 20260504200604 | 13 | 0 | 0.0 | 4.8 | 0.00 | 0.03 | 0.00 | 79 | 1016.4 |
| 20260504200104 | 13 | 359 | 1.6 | 8.0 | 0.00 | 0.03 | 0.00 | 79 | 1016.3 |
| 20260504195604 | 13 | 359 | 3.2 | 8.0 | 0.00 | 0.03 | 0.00 | 79 | 1016.3 |
| 20260504195103 | 13 | 359 | 4.8 | 9.7 | 0.00 | 0.03 | 0.00 | 79 | 1016.2 |
| 20260504194104 | 13 | 32 | 8.0 | 9.7 | 0.00 | 0.03 | 0.00 | 78 | 1016.1 |
| 20260504193604 | 14 | 67 | 6.4 | 8.0 | 0.00 | 0.03 | 0.00 | 77 | 1016.0 |
| 20260504193104 | 14 | 122 | 4.8 | 8.0 | 0.00 | 0.03 | 0.00 | 77 | 1016.0 |
| 20260504192104 | 14 | 72 | 0.0 | 8.0 | 0.00 | 0.03 | 0.00 | 76 | 1016.0 |
| 20260504191604 | 15 | 119 | 3.2 | 8.0 | 0.00 | 0.03 | 0.00 | 75 | 1016.0 |
| 20260504191104 | 15 | 127 | 1.6 | 4.8 | 0.00 | 0.03 | 0.00 | 75 | 1015.9 |
| 20260504190604 | 15 | 108 | 4.8 | 8.0 | 0.00 | 0.03 | 0.00 | 75 | 1015.9 |
| 20260504185104 | 15 | 120 | 6.4 | 9.7 | 0.00 | 0.03 | 0.00 | 74 | 1015.7 |
| 20260504184604 | 15 | 4 | 8.0 | 14.5 | 0.00 | 0.03 | 0.00 | 74 | 1015.5 |
| 20260504184104 | 15 | 38 | 9.7 | 16.1 | 0.00 | 0.03 | 0.00 | 74 | 1015.5 |
| 20260504183604 | 15 | 44 | 11.3 | 16.1 | 0.00 | 0.03 | 0.00 | 73 | 1015.4 |
| 20260504182604 | 15 | 5 | 8.0 | 12.9 | 0.00 | 0.03 | 0.00 | 73 | 1015.4 |
| 20260504182104 | 15 | 25 | 8.0 | 11.3 | 0.00 | 0.03 | 0.00 | 73 | 1015.4 |
| 20260504181604 | 15 | 359 | 9.7 | 22.5 | 0.00 | 0.03 | 0.00 | 73 | 1015.3 |
| 20260504181104 | 15 | 1 | 11.3 | 19.3 | 0.00 | 0.03 | 0.00 | 74 | 1015.2 |
| 20260504180604 | 15 | 4 | 11.3 | 20.9 | 0.00 | 0.03 | 0.00 | 74 | 1015.1 |
| 20260504180104 | 15 | 23 | 11.3 | 19.3 | 0.00 | 0.03 | 0.00 | 74 | 1015.1 |
| 20260504175604 | 15 | 14 | 11.3 | 19.3 | 0.00 | 0.03 | 0.00 | 74 | 1015.2 |
| 20260504175104 | 15 | 359 | 9.7 | 19.3 | 0.00 | 0.03 | 0.00 | 74 | 1015.1 |
| 20260504174104 | 15 | 98 | 9.7 | 14.5 | 0.00 | 0.03 | 0.00 | 73 | 1015.1 |
| 20260504173604 | 15 | 21 | 9.7 | 20.9 | 0.00 | 0.03 | 0.00 | 73 | 1015.1 |
| 20260504172604 | 15 | 359 | 11.3 | 19.3 | 0.00 | 0.03 | 0.00 | 74 | 1015.1 |
| 20260504172104 | 15 | 3 | 11.3 | 24.1 | 0.00 | 0.03 | 0.00 | 74 | 1015.0 |
| 20260504171604 | 15 | 359 | 9.7 | 16.1 | 0.00 | 0.03 | 0.00 | 75 | 1015.0 |
| 20260504171104 | 15 | 4 | 11.3 | 14.5 | 0.00 | 0.03 | 0.00 | 75 | 1015.0 |
| 20260504170604 | 16 | 12 | 9.7 | 14.5 | 0.00 | 0.03 | 0.00 | 75 | 1015.1 |
| 20260504170104 | 16 | 8 | 9.7 | 16.1 | 0.00 | 0.03 | 0.00 | 75 | 1015.1 |
| 20260504160105 | 16 | 359 | 9.7 | 12.9 | 0.00 | 0.03 | 0.00 | 74 | 1015.1 |
| 20260504151105 | 17 | 4 | 6.4 | 11.3 | 0.00 | 0.03 | 0.00 | 76 | 1015.1 |
| 20260504150105 | 17 | 10 | 8.0 | 19.3 | 0.00 | 0.03 | 0.00 | 76 | 1015.1 |
| 20260504140605 | 17 | 92 | 8.0 | 14.5 | 0.00 | 0.03 | 0.00 | 80 | 1015.0 |
| 20260504140105 | 17 | 3 | 11.3 | 19.3 | 0.00 | 0.03 | 0.00 | 81 | 1014.7 |
| 20260504130605 | 17 | 2 | 3.2 | 12.9 | 0.00 | 0.03 | 0.03 | 91 | 1014.9 |
| 20260504130105 | 17 | 17 | 6.4 | 12.9 | 0.00 | 0.03 | 0.03 | 91 | 1014.9 |
| 20260504120106 | 17 | 359 | 0.0 | 0.0 | 0.00 | 0.03 | 0.03 | 88 | 1015.2 |
| 20260504110605 | 18 | 359 | 0.0 | 0.0 | 0.00 | 0.03 | 0.03 | 85 | 1014.7 |
| 20260504110105 | 18 | 359 | 0.0 | 0.0 | 0.00 | 0.03 | 0.03 | 85 | 1014.6 |
| 20260504100605 | 19 | 359 | 0.0 | 0.0 | 0.00 | 0.03 | 0.03 | 85 | 1013.8 |
| 20260504100105 | 19 | 359 | 0.0 | 0.0 | 0.00 | 0.03 | 0.03 | 85 | 1013.8 |
| 20260504090105 | 19 | 359 | 0.0 | 0.0 | 0.00 | 0.03 | 0.03 | 87 | 1013.8 |
| 20260504081605 | 19 | 359 | 0.0 | 0.0 | 0.00 | 0.03 | 0.03 | 86 | 1013.5 |
| 20260504081105 | 19 | 359 | 0.0 | 0.0 | 0.00 | 0.03 | 0.03 | 86 | 1013.6 |
| 20260504080105 | 19 | 359 | 0.0 | 0.0 | 0.00 | 0.03 | 0.03 | 86 | 1013.4 |
| 20260504070105 | 19 | 359 | 0.0 | 3.2 | 0.00 | 0.03 | 0.03 | 85 | 1013.3 |
| 20260504060105 | 20 | 359 | 0.0 | 4.8 | 0.00 | 0.03 | 0.03 | 85 | 1013.1 |
| 20260504050604 | 20 | 359 | 0.0 | 3.2 | 0.00 | 0.03 | 0.03 | 88 | 1013.4 |
| 20260504050104 | 20 | 359 | 0.0 | 0.0 | 0.00 | 0.03 | 0.03 | 88 | 1013.4 |
| 20260504045604 | 19 | 359 | 0.0 | 1.6 | 0.00 | 0.03 | 0.03 | 89 | 1013.4 |